Regional Weather Roundup
Issued by NWS

Home | Current Version | Previous Version | Graphics & Text | Print | Product List | Glossary On
Versions: 1 2 3 4 5 6 7 8 9 10 11 12 13 14 15 16 17 18 19 20 21 22 23 24 25 26 27 28 29 30 31 32 33 34 35 36 37 38 39 40 41 42 43 44 45 46 47 48 49 50
000
ASUS43 KTOP 191508
RWRKS

WEATHER ROUNDUP FOR KANSAS
NATIONAL WEATHER SERVICE GOODLAND KS
1000 AM CDT SAT AUG 19 2017

NOTE:  "FAIR" INDICATES FEW OR NO CLOUDS BELOW 12,000 FEET WITH NO
SIGNIFICANT WEATHER AND/OR OBSTRUCTIONS TO VISIBILITY.

KSZ001>006-013>018-027>032-041>047-191600-
NORTHWEST KANSAS

CITY           SKY/WX    TMP DP  RH WIND       PRES   REMARKS
GOODLAND       SUNNY     76  64  66 S16       30.02F
HAYS           SUNNY     77  68  73 SE7       30.00S
HILL CITY      SUNNY     74  66  76 SE6       30.00F
RUSSELL        SUNNY     77  66  68 E8        29.98F
$$

KSZ061>065-074>080-084>089-191600-
SOUTHWEST KANSAS

CITY           SKY/WX    TMP DP  RH WIND       PRES   REMARKS
DODGE CITY     SUNNY     84  66  54 S3        30.03F
ELKHART          N/A     76  70  82 S5          N/A
GARDEN CITY    SUNNY     82  67  60 S7        30.03F
GREAT BEND     SUNNY     80  69  69 CALM      29.99F
LIBERAL        SUNNY     78  70  76 S9        30.06S
PRATT          SUNNY     84  67  57 SW7       30.00S
$$

KSZ066>073-081>083-090>101-191600-
SOUTHEAST KANSAS

CITY           SKY/WX    TMP DP  RH WIND       PRES   REMARKS
CHANUTE        SUNNY     83  75  77 MISG      29.98S
COFFEYVILLE    SUNNY     82  76  81 S6        29.98S
HUTCHINSON     SUNNY     83  70  64 S3        29.97S
MEDICINE LODGE   N/A     82  69  64 CALM      29.97F
NEWTON         SUNNY     83  73  72 S3        29.98S
PARSONS        SUNNY     82  76  81 S5        29.99S
WICHITA INTL   MOSUNNY   85  72  65 S9        29.96F
WICHITA JABRA  SUNNY     84  73  69 S9        29.97S
WICHITA MCCONL SUNNY     84  70  62 S8        29.97F
WINFIELD       SUNNY     83  75  77 S6        29.99S
$$

KSZ007>012-019>026-033>040-048>060-102>105-191600-
NORTHEAST KANSAS

CITY           SKY/WX    TMP DP  RH WIND       PRES   REMARKS
CONCORDIA      SUNNY     76  69  79 SE7       29.98F
EMPORIA        SUNNY     78  68  71 E3        29.97S
LAWRENCE       SUNNY     79  72  79 CALM      29.97S
MANHATTAN      SUNNY     77  70  79 NE7       29.98S
MARYSVILLE     SUNNY     79  66  65 SE6       29.98S
OLATHE IND     SUNNY     80  71  74 CALM      29.99R
OLATHE EXE     SUNNY     81  70  69 N3        29.98R
SALINA         SUNNY     80  67  64 NE7       29.98F
TOPEKA BILLARD SUNNY     79  70  74 CALM      29.98R
TOPEKA FORBES  SUNNY     81  71  71 NE5       29.98R
$$




USA.gov is the U.S. government's official web portal to all federal, state and local government web resources and services.